www.pogodaiklimat.ru

Погода и климат >> Архив погоды >> Австрия >> Санкт-Пёльтен


ПОГОДА в Санкт-Пёльтене

  • Прогноз погоды в Санкт-Пёльтене
  • Монитор погоды в Санкт-Пёльтене

АРХИВ ПОГОДЫ в Санкт-Пёльтене

Время (UTC), дата Ветер
(напр.,м/с)
 
Видим.   Явления Облачность Т
(С)
Тd
(С)
f
(%)
Тe
(С)
Тes
(С)
Комфортность P
(гПа)
Po
(гПа)
Тmin
(С)
Tmax
(С)
R
(мм)
R24
(мм)
S
(см)
10 10.08 ЮЗ 3 н/о н/о +26.9 +19.0 62 +32 +32 очень
душно
1013.6 983.4
11 10.08 Ю 1 н/о н/о +28.6 +18.1 53 +33 +33 очень
душно
1013.4 983.3
12 10.08 СВ 1 30 км 5/5 900 м
[Sc]
+30.2 +18.4 49 +35 +44 очень
душно
1012.8 982.9
13 10.08 СВ 2 н/о н/о +30.8 +17.4 45 +35 +35 очень
душно
1012.8 982.9
14 10.08 СВ 1 30 км 6/6 900 м
[Sc]
+30.1 +18.5 50 +35 +39 очень
душно
1012.8 982.9
15 10.08 ЮЗ 4 н/о н/о +29.9 +19.3 53 +36 +36 очень
душно
1013.2 983.3
16 10.08 ЮЗ 8
{15}
н/о н/о +25.9 +18.3 63 +31 +31 очень
душно
1015.0 984.6
17 10.08 ЮЗ 6
{14}
н/о н/о +24.1 +17.8 68 +28 +28 душно 1016.3 985.7
18 10.08 ЮЗ 6
{15}
30 км 10/10 900 м
[Sc]
+23.0 +17.4 71 +28 +28 душно 1017.4 986.6 +20.6 +31.6
19 10.08 ЮЗ 4 н/о в посл. час осадки н/о +20.4 +18.2 87 +24 +24 комфорт 1018.8 987.7 0.5
20 10.08 ЮЗ 3 н/о в посл. час осадки н/о +19.9 +18.3 90 +23 +23 комфорт 1018.9 987.8 0.2
21 10.08 ЮЗ 3 н/о {ливн. осадки} н/о +20.2 +18.4 89 +24 +24 комфорт 1018.8 987.7 0.7
22 10.08 ЮЗ 2 н/о ливневой дождь н/о +19.7 +18.3 92 +23 +23 комфорт 1019.1 987.9 1
23 10.08 ЮЗ 3 н/о в посл. час осадки н/о +19.3 +18.1 93 +22 +22 комфорт 1019.0 987.8 0.3
00 11.08 ЮЗ 2 н/о в посл. час осадки {ливн. осадки} н/о +19.2 +18.1 93 +22 +22 комфорт 1019.4 988.2 2
01 11.08 ЮЗ 2 н/о н/о +18.8 +17.6 93 +21 +21 комфорт 1019.7 988.4
02 11.08 ЮЗ 3 н/о в посл. час осадки н/о +19.0 +17.8 93 +21 +21 комфорт 1019.8 988.5 0.1
03 11.08 ЮЗ 4 н/о в посл. час осадки н/о +18.7 +17.6 93 +20 +20 1019.7 988.4 0.2
04 11.08 ЮЗ 3 н/о н/о +18.2 +17.3 94 +19 +19 1019.8 988.5
05 11.08 ЮЗ 3 н/о н/о +18.3 +16.6 90 +19 +19 1020.5 989.1
06 11.08 Ю 3 30 км {ливн. осадки} 10/10 900 м
[Sc]
+18.4 +16.1 86 +19 +19 1020.6 989.2 +18.0 +23.1 3
07 11.08 ЮЗ 2 н/о н/о +19.4 +16.6 84 +22 +22 комфорт 1020.3 989.1
08 11.08 ЮЗ 2 30 км 10/10 900 м
[Sc]
+20.5 +16.6 78 +24 +24 комфорт 1019.9 988.8
09 11.08 ЮЗ 1 н/о н/о +22.0 +16.6 71 +26 +26 душно 1019.7 988.7
10 11.08 СВ 1 н/о н/о +23.7 +16.2 63 +27 +27 жарко 1018.8 988.0
11 11.08 СВ 2 н/о н/о +25.0 +14.4 52 +28 +28 жарко 1017.9 987.3
12 11.08 СВ 3 30 км 6/6 1200 м
[Sc]
+25.2 +13.4 48 +27 +32 жарко 1017.1 986.5
13 11.08 СВ 4 н/о н/о +26.3 +14.3 48 +29 +29 жарко 1015.9 985.5
14 11.08 СВ 4 30 км ясно +27.2 +15.1 48 +30 +36 душно 1014.8 984.5
15 11.08 СВ 5 н/о н/о +27.7 +15.1 46 +30 +30 жарко 1013.5 983.3
16 11.08 С 3 н/о н/о +27.7 +15.4 47 +31 +31 душно 1012.7 982.5
17 11.08 СВ 3 н/о н/о +28.1 +14.9 45 +31 +31 душно 1011.7 981.6
18 11.08 СВ 3 30 км ясно +26.7 +14.8 48 +29 +29 жарко 1011.5 981.2 +18.3 +28.5
19 11.08 С 3 н/о н/о +25.1 +14.8 53 +28 +28 жарко 1011.6 981.2
20 11.08 С 2 н/о н/о +23.5 +15.2 60 +26 +26 жарко 1011.5 980.9
21 11.08 С 2 н/о н/о +22.5 +15.6 65 +26 +26 жарко 1010.9 980.2
22 11.08 С 1 н/о н/о +21.8 +15.7 68 +25 +25 комфорт 1010.5 979.8
23 11.08 С 1 н/о н/о +19.5 +16.0 80 +23 +23 комфорт 1011.0 980.0
00 12.08 З 1 н/о н/о +19.7 +15.7 78 +23 +23 комфорт 1011.9 980.9
01 12.08 ЮЗ 1 н/о н/о +19.2 +15.9 81 +22 +22 комфорт 1013.1 982.0
02 12.08 ЮЗ 3 н/о н/о +19.5 +15.9 80 +22 +22 комфорт 1013.0 982.0
03 12.08 ЮЗ 5 н/о н/о +20.1 +16.0 77 +23 +23 комфорт 1013.3 982.3
04 12.08 ЮЗ 5 н/о н/о +20.4 +16.4 78 +23 +23 комфорт 1013.6 982.7
05 12.08 ЮЗ 6 н/о н/о +20.9 +16.8 77 +24 +24 комфорт 1013.9 983.0
06 12.08 ЮЗ 6 30 км ясно +21.5 +17.3 77 +26 +27 душно 1014.2 983.4 +18.9 +26.9
07 12.08 ЮЗ 6 н/о н/о +22.8 +17.6 72 +28 +28 душно 1014.8 984.1
08 12.08 ЮЗ 7
{13}
30 км ясно +24.3 +17.5 66 +28 +31 душно 1014.9 984.3
09 12.08 ЮЗ 4
{13}
н/о н/о +25.4 +17.7 62 +30 +30 душно 1014.6 984.2
10 12.08 ЮЗ 6 н/о н/о +25.8 +17.9 62 +30 +30 душно 1014.5 984.1
11 12.08 ЮЗ 5 н/о н/о +26.6 +17.7 58 +31 +31 душно 1013.8 983.5
12 12.08 З 1
{13}
30 км 8/8 900 м
[Sc]
+27.6 +18.7 58 +33 +36 очень
душно
1012.8 982.6
13 12.08 С 2 н/о н/о +26.7 +17.8 58 +31 +31 душно 1012.8 982.5
14 12.08 С 2 30 км 10/10 900 м
[Sc]
+26.3 +18.1 61 +31 +31 душно 1012.6 982.3
15 12.08 СЗ 1 н/о н/о +25.6 +18.5 65 +30 +30 душно 1012.7 982.3 0.0
16 12.08 ЮЗ 8
{15}
н/о осадки н/о +21.3 +18.8 86 +26 +26 душно 1013.5 982.7 4
17 12.08 ЮЗ 6
{15}
н/о в посл. час осадки н/о +18.6 +17.5 93 +19 +19 1015.3 984.1 1
18 12.08 ЮЗ 3
{15}
10 км {дождь, метель} 10/10 900 м
[Sc]
+18.1 +16.9 93 +18 +18 1015.6 984.4 +18.1 +28.0 6
19 12.08 Ю 3 н/о н/о +18.0 +16.8 93 +18 +18 1015.0 983.8 0.0
20 12.08 ЮЗ 2 н/о н/о +18.3 +17.0 92 +19 +19 1014.5 983.3 0.0
21 12.08 ЮЗ 3 н/о н/о +18.2 +17.0 93 +19 +19 1014.5 983.3 0.0
22 12.08 З 4 н/о осадки н/о +17.9 +16.8 93 +18 +18 1016.1 984.8 0.9
23 12.08 ЮЗ 5 н/о осадки н/о +17.6 +16.8 95 +17 +17 1016.8 985.5 0.3
00 13.08 ЮЗ 2 н/о в посл. час осадки {ливн. осадки} н/о +17.1 +16.3 95 +17 +17 1016.6 985.2 2
01 13.08 ЮЗ 3 н/о н/о +16.7 +15.7 94 +16 +16 1016.9 985.5
02 13.08 ЮЗ 3 н/о н/о +16.6 +15.7 94 +16 +16 1017.0 985.5
03 13.08 ЮЗ 4 н/о н/о +16.6 +15.5 93 +16 +16 1016.7 985.3
04 13.08 ЮЗ 5 н/о н/о +16.5 +15.3 93 +16 +16 1017.2 985.7
05 13.08 ЮЗ 5 н/о н/о +16.7 +15.3 91 +16 +16 1017.3 985.8
06 13.08 ЮЗ 5 30 км 10/10 900 м
[Sc]
+16.9 +15.4 91 +16 +16 1017.6 986.2 +16.4 +18.3 2
07 13.08 ЮЗ 5 н/о н/о +17.8 +15.7 88 +17 +17 1018.2 986.8
08 13.08 ЮЗ 5 30 км 6/6 900 м
[Sc]
+18.8 +16.0 84 +20 +22 1018.2 986.9
09 13.08 ЮЗ 6 н/о н/о +19.9 +15.8 77 +22 +22 комфорт 1018.2 987.1
10 13.08 ЮЗ 7 н/о н/о +19.7 +14.8 73 +21 +21 комфорт 1018.1 986.9
11 13.08 ЮЗ 6 н/о н/о +20.4 +15.0 71 +23 +23 комфорт 1018.0 986.9
12 13.08 ЮЗ 5 30 км 8/8 1200 м
[Sc]
+20.5 +14.9 70 +23 +25 комфорт 1017.7 986.6
13 13.08 ЮЗ 5 н/о н/о +21.0 +14.6 67 +24 +24 комфорт 1017.2 986.2
14 13.08 ЮЗ 6 30 км 8/8 900 м
[Sc]
+20.8 +14.0 65 +23 +24 комфорт 1016.8 985.8
15 13.08 ЮЗ 5 н/о н/о +20.2 +14.2 68 +22 +22 комфорт 1016.9 985.8
16 13.08 ЮЗ 4 н/о н/о +19.9 +14.4 71 +22 +22 комфорт 1016.6 985.5
17 13.08 ЮЗ 4 н/о н/о +19.7 +14.1 70 +22 +22 комфорт 1016.3 985.2
18 13.08 ЮЗ 3 30 км 10/10 900 м
[Sc]
+19.2 +14.0 72 +21 +21 комфорт 1016.4 985.2 +16.8 +21.7 0.0
19 13.08 ЮЗ 4 н/о н/о +18.6 +14.0 75 +19 +19 1016.4 985.2 0.0
20 13.08 ЮЗ 5 н/о н/о +18.4 +13.8 75 +19 +19 1016.9 985.6
21 13.08 ЮЗ 4 н/о н/о +17.9 +14.0 78 +18 +18 1017.0 985.7 0.0
22 13.08 ЮЗ 4 н/о осадки н/о +16.6 +15.1 91 +16 +16 1017.8 986.3 0.4
23 13.08 ЮЗ 3 н/о н/о +16.1 +14.7 91 +16 +16 1017.7 986.2 0.0
00 14.08 ЮЗ 4 н/о {осадки} н/о +15.3 +13.8 91 +14 +14 1017.6 986.0 0.4
01 14.08 ЮЗ 4 н/о осадки н/о +14.7 +13.4 92 +13 +13 1017.9 986.2 0.3
02 14.08 ЮЗ 5 н/о в посл. час осадки н/о +14.4 +13.2 92 +13 +13 1017.6 985.9 0.1
03 14.08 ЮЗ 6 н/о {осадки} н/о +14.4 +13.0 91 +12 +12 1018.0 986.2 0.4
04 14.08 ЮЗ 5 н/о н/о +14.4 +12.9 91 +13 +13 1017.5 985.8
05 14.08 ЮЗ 5 н/о н/о +14.4 +12.8 90 +13 +13 1018.0 986.2
06 14.08 ЮЗ 6 30 км {осадки} 10/10 900 м
[Sc]
+14.8 +12.9 88 +13 +13 1018.3 986.6 +14.3 +19.3 0.8
07 14.08 ЮЗ 7 н/о н/о +16.0 +13.1 83 +14 +14 1018.4 986.8
08 14.08 ЮЗ 7 30 км 10/10 900 м
[Sc]
+16.7 +12.9 78 +15 +15 1018.2 986.7
09 14.08 ЮЗ 6 н/о н/о +18.4 +13.0 71 +18 +18 1017.9 986.6
10 14.08 ЮЗ 8 н/о н/о +19.9 +12.4 62 +21 +21 комфорт 1017.8 986.6
11 14.08 ЮЗ 5 н/о н/о +20.5 +11.9 58 +22 +22 комфорт 1017.6 986.5
12 14.08 ЮЗ 6 30 км 10/10 900 м
[Sc]
+20.8 +11.6 56 +23 +23 комфорт 1017.7 986.6
13 14.08 ЮЗ 5 н/о н/о +20.1 +9.6 51 +21 +21 комфорт 1017.5 986.3
14 14.08 ЮЗ 6 30 км 10/10 900 м
[Sc]
+22.8 +10.6 46 +25 +25 комфорт 1016.7 985.8
15 14.08 ЮЗ 6 н/о н/о +23.0 +9.5 42 +25 +25 комфорт 1016.3 985.5
16 14.08 З 5 н/о н/о +20.9 +9.0 46 +22 +22 комфорт 1016.9 985.8
17 14.08 З 3 н/о н/о +20.1 +9.5 50 +22 +22 комфорт 1017.0 985.8
18 14.08 ЮЗ 3 30 км 10/10 900 м
[Sc]
+19.5 +9.7 53 +21 +21 комфорт 1017.1 985.9 +14.7 +23.3
19 14.08 ЮЗ 3 н/о н/о +18.0 +9.5 58 +18 +18 1017.9 986.5
20 14.08 Ю 2 н/о н/о +16.9 +10.1 64 +17 +17 1018.4 986.9
21 14.08 Ю 1 н/о н/о +15.6 +10.3 71 +16 +16 1018.8 987.1
22 14.08 Ю 1 н/о н/о +14.4 +10.0 75 +15 +15 1018.9 987.1
23 14.08 Ю 2 н/о н/о +13.8 +9.7 76 +13 +13 1019.0 987.1
00 15.08 Ю 2 н/о н/о +12.9 +9.5 80 +12 +12 1019.0 987.0
01 15.08 Ю 2 н/о н/о +12.7 +9.1 79 +12 +12 1018.9 986.9
02 15.08 ЮЗ 2 н/о н/о +11.6 +9.2 85 +10 +10 1018.6 986.5
03 15.08 ЮЗ 2 н/о н/о +11.0 +8.9 87 +10 +10 1018.4 986.2
04 15.08 Ю 2 н/о н/о +10.7 +8.8 88 +9 +9 1018.2 986.0
05 15.08 ЮЗ 2 н/о н/о +11.4 +8.8 84 +10 +10 1018.1 986.0
06 15.08 Ю 2 30 км ясно +13.5 +9.5 77 +13 +15 1017.7 985.8 +10.6 +19.8
07 15.08 ЮЗ 1 н/о н/о +15.9 +10.0 68 +17 +17 1017.1 985.5
08 15.08 штиль 0 30 км ясно +18.6 +10.7 60 +19 +31 опасность
простуды
1016.5 985.2
09 15.08 СВ 2 н/о н/о +21.0 +11.8 56 +24 +24 комфорт 1015.6 984.6
10 15.08 В 1 н/о н/о +22.2 +10.5 47 +24 +24 комфорт 1015.0 984.1
11 15.08 СВ 1 н/о н/о +23.3 +9.0 40 +25 +25 комфорт 1014.1 983.4
12 15.08 СЗ 1 30 км 3/3
[Sc]
+24.2 +9.1 38 +25 +36 комфорт 1013.6 983.0
13 15.08 ЮВ 2 н/о н/о +25.5 +9.4 36 +26 +26 жарко 1013.1 982.6
14 15.08 ЮЗ 3 30 км 5/5 1200 м
[Sc]
+25.6 +5.9 28 +25 +29 комфорт 1012.9 982.4
15 15.08 ЮЗ 4 н/о н/о +25.3 +5.4 28 +25 +25 комфорт 1012.8 982.3
16 15.08 ЮЗ 3 н/о н/о +24.4 +8.0 35 +25 +25 комфорт 1012.9 982.3 0.0
17 15.08 ЮЗ 6 н/о н/о +23.3 +9.6 42 +25 +25 комфорт 1013.3 982.6
18 15.08 ЮЗ 4 20 км 8/8 900 м
[Sc]
+20.7 +12.1 58 +23 +23 комфорт 1014.3 983.3 +13.0 +26.2 0.0
19 15.08 ЮЗ 4 н/о н/о +19.8 +12.2 62 +21 +21 комфорт 1014.6 983.5 0.0
20 15.08 ЮЗ 4 н/о н/о +19.4 +12.3 63 +21 +21 комфорт 1015.1 984.0
21 15.08 ЮЗ 4 н/о н/о +18.4 +12.3 68 +19 +19 1015.7 984.4 0.0
22 15.08 ЮЗ 5 н/о н/о +18.2 +12.0 67 +18 +18 1016.0 984.7
23 15.08 ЮЗ 4 н/о н/о +17.6 +12.1 70 +17 +17 1016.1 984.7
00 16.08 ЮЗ 5 н/о н/о +17.6 +11.8 69 +17 +17 1016.1 984.7 0.0
01 16.08 ЮЗ 4 н/о н/о +17.4 +12.7 74 +17 +17 1016.3 984.9 0.0
02 16.08 ЮЗ 6 н/о н/о +17.7 +13.3 75 +17 +17 1016.1 984.8
03 16.08 ЮЗ 5 н/о н/о +17.3 +13.2 77 +17 +17 1016.8 985.4 0.0
04 16.08 ЮЗ 5 н/о н/о +16.8 +13.2 79 +16 +16 1017.3 985.8
05 16.08 ЮЗ 6 н/о н/о +16.4 +13.5 83 +15 +15 1017.4 985.9
06 16.08 ЮЗ 6 30 км 10/10 900 м
[Sc]
+16.5 +13.5 82 +15 +15 1017.8 986.3 +16.4 +20.8 0.0
07 16.08 ЮЗ 6 н/о н/о +16.6 +14.0 85 +15 +15 1018.3 986.8 0.0
08 16.08 ЮЗ 5 30 км 10/10 1200 м
[Sc]
+17.4 +13.7 79 +17 +17 1018.5 987.1 0.0
09 16.08 ЮЗ 6 н/о н/о +20.4 +14.1 67 +23 +23 комфорт 1017.9 986.8 0.0
10 16.08 ЮЗ 8 н/о н/о +20.2 +13.3 65 +22 +22 комфорт 1017.9 986.8
11 16.08 ЮЗ 7
{13}
н/о н/о +21.2 +12.9 59 +23 +23 комфорт 1017.6 986.6
12 16.08 ЮЗ 5
{13}
30 км 8/8 900 м
[Sc]
+21.7 +13.5 60 +24 +26 комфорт 1017.4 986.4 0.0
13 16.08 З 6 н/о в посл. час осадки н/о +22.0 +11.6 52 +24 +24 комфорт 1017.1 986.2 0.0
14 16.08 СЗ 3 30 км 8/8 900 м
[Sc]
+21.2 +13.4 61 +24 +25 комфорт 1017.0 986.0
15 16.08 ЮЗ 4 н/о {осадки} н/о +21.7 +12.2 55 +24 +24 комфорт 1016.8 985.8 0.0
16 16.08 Ю 1
{13}
н/о в посл. час осадки н/о +20.4 +17.1 81 +25 +25 комфорт 1016.8 985.8 3
17 16.08 З 3 н/о н/о +21.0 +15.4 70 +25 +25 комфорт 1016.6 985.6
18 16.08 ЮЗ 1
{13}
30 км {дождь, метель} 6/6 900 м
[Sc]
+18.1 +14.9 82 +19 +19 1017.0 985.7 +16.4 +23.4 3
19 16.08 С 1 н/о н/о +16.7 +14.8 89 +18 +18 1017.7 986.2
20 16.08 Ю 1 н/о н/о +15.4 +14.0 91 +16 +16 1018.0 986.4
21 16.08 Ю 1 н/о н/о +14.7 +13.1 90 +15 +15 1018.1 986.4
22 16.08 Ю 2 н/о н/о +13.9 +12.3 90 +13 +13 1018.0 986.2
23 16.08 штиль 0 н/о н/о +13.3 +11.8 91 +13 +13 1017.8 985.9
00 17.08 ЮЗ 1 н/о н/о +12.7 +11.7 94 +13 +13 1017.7 985.8
01 17.08 штиль 0 н/о н/о +12.1 +11.2 94 +11 +11 1017.5 985.5
02 17.08 Ю 1 н/о н/о +11.5 +10.6 94 +11 +11 1017.2 985.1
03 17.08 штиль 0 н/о н/о +11.4 +10.6 95 +11 +11 1017.2 985.1
05 17.08 Ю 1 н/о н/о +11.3 +10.3 94 +11 +11 1017.3 985.2
06 17.08 штиль 0 30 км 10/10 900 м
[Sc]
+13.3 +11.4 88 +13 +13 1017.3 985.4 +10.5 +18.6
07 17.08 штиль 0 н/о н/о +14.8 +11.8 82 +15 +15 1017.1 985.4
08 17.08 С 1 30 км 10/10 900 м
[Sc]
+17.8 +12.8 73 +19 +19 1016.1 984.8
09 17.08 СВ 1 н/о н/о +18.8 +12.6 67 +21 +21 комфорт 1016.4 985.2
10 17.08 С 1 н/о н/о +20.8 +12.9 61 +24 +24 комфорт 1015.8 984.8

 

Местоположение метеостанции Санкт-Пёльтен (Австрия): широта 48.20 долгота 15.63 высота над уровнем моря 260 м.

В архиве по умолчанию представлена погода в Санкт-Пёльтене за последнюю неделю. Архивные данные за месяц целиком и за предыдущие месяцы, начиная с января 2011 года, Вы можете получить, выбрав интересующий диапазон дат из раскрывающегося списка и нажав кнопку "Ввод!".


*Определитесь, кто Вы:
робот инопланетянин человек

Внимание! Время в таблицах - всемирное. Для получения местного времени необходимо прибавить поправку, которая равна 1 ч.

Смотрите также архив погоды в соседних городах и на ближайших метеорологических станциях:

Погода в Лилиенфельде (Австрия) (19 км)
Погода в Кремс-ан-дер-Донау (Австрия) (24 км)
Погода в Яуерлинге (Австрия) (27 км)
Погода в Лангенлойсе (Австрия) (30 км)
Погода в Тульн-ан-дер-Донау (Австрия) (39 км)
Погода в Марияхильфберге (Австрия) (41 км)
Погода в Гарс-ам-Кампе (Австрия) (42 км)
Погода в Мариябрунн (Австрия) (44 км)
Погода в Штоккерау (Австрия) (45 км)
Погода в Санкт-Себастьяне (Австрия) (51 км)

Пояснения к столбцам:

Ветер - указаны скорость ветра в м/с - средняя за 10 мин, порывы в срок и между сроками (в фигурных скобках) и направление, откуда дует ветер: С - северный, СВ - северо-восточный, В - восточный, ЮВ - юго-восточный, Ю - южный, ЮЗ - юго-западный, З - западный, СЗ - северо-западный.
Видимость - горизонтальная дальность видимости в метрах или километрах. При видимости от 1 до 10 км при отсутствии осадков обычно наблюдается дымка, при ухудшении видимости до 1 км и менее - туман. В сухую погоду видимость может ухудшаться дымом, пылью или мглою.
Явления - указаны атмосферные явления, наблюдавшиеся в срок или в последний час перед сроком; фигурными скобками обозначены явления, наблюдавшиеся между сроками (за 1-3 часа до срока); квадратными скобками обозначены град или гололедные отложения с указанием их диаметра в мм.
Облачность - указаны через наклонную черту общая и нижняя облачность в баллах и высота нижней границы облаков в метрах; квадратными скобками обозначены формы облаков: Ci - перистые, Cs - перисто-слоистые, Cc - перисто-кучевые, Ac - высококучевые, As - высокослоистые, Sc - слоисто-кучевые, Ns - слоисто-дождевые, Cu - кучевые, Cb - кучево-дождевые. Подробнее классификацию облаков см. в Атласе облаков (PDF).
T - Температура воздуха - температура, измеренная на высоте 2 м над землей.
Td - Температура точки росы - температура, при понижении до которой содержащийся в воздухе водяной пар достигнет насыщения.
f - Относительная влажность воздуха - влажноcть воздуха, измеренная на высоте 2 м над землей.
Te - Эффективная температура - температура, которую ощущает одетый по сезону человек в тени. Характеристика душности погоды. При расчете учитывается влияние влажности воздуха и скорости ветра на теплоощущения человека.
Tes - Эффективная температура на солнце - температура, которую ощущает человек, с поправкой на солнечный нагрев. Характеристика знойности погоды. Зависит от высоты солнца над горизонтом, облачности и скорости ветра. Ночью, в пасмурную погоду, а также при ветре 12 м/с и более поправка равна нулю.
P - Атмосферное давление - приведенное к уровню моря атмосферное давление.
Po - Атмосферное давление - измеренное на уровне метеостанции атмосферное давление.
Tmin - Минимальная температура - минимум температуры воздуха на высоте 2 м над землей.
Tmax - Максимальная температура - максимум температуры воздуха на высоте 2 м над землей.
R - Количество осадков - Количество выпавших осадков за период времени, мм. При наведении курсора мыши на число - период времени, за который выпало указанное количество осадков.
R24 - Количество осадков - Количество выпавших осадков за 24 часа, мм.
S - Снежный покров - Высота снежного покрова, см. При наведении курсора мыши на число - состояние снежного покрова и степень покрытия местности в баллах.